User: anonymous   Login
Location: Simferopol
(44.5000°N, 34.0000°E)
Time: 22:11:00
(UTC+02:00)
Language:

ISS - Orbit

View from above orbital plane
View from above orbital plane
View from above satellite
View from above satellite

Ground track
Ground track

The orbit data is extracted from the following two-line orbital elements,

1 25544U 98067A   21332.70511889  .00007272  00000-0  14145-3 0  9996
2 25544  51.6436 249.2473 0004434 253.8207 189.8492 15.48701866314094
Epoch (UTC): 28 November 2021 16:55:22
Eccentricity: 0.0004434
inclination: 51.6436°
perigee height: 417 km
apogee height: 423 km
right ascension of ascending node: 249.2473°
argument of perigee: 253.8207°
revolutions per day: 15.48701866
mean anomaly at epoch: 189.8492°
orbit number at epoch: 31409

The dashed part of the orbit path shows where the satellite is in the earth's shadow,  

DLR